Lid_Strength_Index
2 2 1 1 1 0 0 0 0 -0 -0 0 1 1 1 0 0 -0 -2 -2 -1 -1 -2 -1 -0 -1 -0 -1 -1 -0 1 1 -0 1 1 1 1 0 0 -0 -0 -1 -1
3 2 2 1 1 1 1 0 0 -0 -0 0 0 -0 -0 -0 -0 -1 -1 -2 -2 -2 -1 -1 0 -0 -0 -0 -0 -0 1 1 -0 2 2 3 2 1 0 -0 -0 -0 -1
3 3 2 2 1 1 1 1 0 0 -0 -0 -0 -0 -0 -0 0 -0 -0 -1 -1 -1 -1 -1 -1 -1 -0 1 -0 -0 0 2 1 0 2 4 5 3 1 0 0 -0 -0
3 3 2 2 2 1 1 0 0 0 0 -0 0 0 1 2 1 0 -0 -1 -1 -1 -1 -1 -1 -1 -0 -1 -0 -0 0 0 2 1 0 1 1 4 5 1 0 -0 0
3 3 2 2 1 1 1 1 0 0 0 -0 -0 1 1 1 0 0 -1 -1 -1 -1 -1 -1 -1 -1 -0 -1 -0 -0 -0 0 1 1 1 1 1 1 3 5 3 1 0
3 2 2 1 1 1 1 1 1 1 0 0 0 0 1 1 1 0 1 0 0 -0 -1 -1 -1 -1 -1 -1 -0 -1 -0 -0 0 1 0 1 2 2 3 3 3 2 1
3 3 2 2 2 1 1 1 1 1 1 0 0 0 0 0 1 0 1 0 1 0 -0 -1 -1 -0 -1 -1 -1 -1 -0 -1 -0 -0 1 0 1 1 2 2 3 3 1
3 2 2 2 2 1 1 1 1 1 1 0 1 0 0 1 1 0 0 0 0 -0 -1 -0 -1 -1 -1 -1 -1 -0 -0 -0 0 -0 0 1 1 1 1 1 2 3 3
3 2 2 2 2 1 1 1 1 1 1 1 1 1 0 0 0 -0 -0 0 -1 -0 -1 -1 -1 -1 -1 -1 -1 0 -0 -1 -0 -0 -1 0 0 -0 0 0 1 2 5
3 2 2 2 1 1 1 1 1 1 1 0 1 0 0 0 0 -0 0 -0 -0 -1 -1 -1 -1 -1 -1 -1 -1 -0 -1 -0 0 0 0 0 0 -0 -0 0 0 1 2
3 2 2 1 1 1 1 1 1 1 1 1 0 0 0 0 0 0 0 0 -0 -1 -0 -1 -1 -0 -0 -1 -1 -0 -0 -0 -0 0 0 0 -1 0 0 0 0 1 1
2 2 2 2 1 1 1 1 1 1 1 0 0 0 0 0 1 0 0 -0 0 -0 -1 -1 -0 -0 -0 -0 -0 0 -0 -0 0 0 0 0 0 -0 -0 0 -1 0 0
3 2 2 2 2 1 1 1 1 1 1 1 1 1 1 1 1 0 0 -0 -0 -0 -0 -0 0 0 -0 0 -0 -0 -0 0 0 0 0 0 -0 -0 0 0 0 0 0
3 3 2 2 2 2 1 1 1 1 1 1 1 1 1 1 1 0 0 0 -0 0 0 -0 0 0 -0 -0 -0 -0 -0 0 0 -0 0 -0 -0 -0 -0 0 -0 0 1
3 3 3 3 2 2 2 1 1 1 1 1 1 1 1 0 0 0 0 -0 0 0 0 0 -0 -0 -0 0 0 0 -0 0 0 0 -0 -1 -1 -0 -0 0 -0 -0 1
3 3 3 2 2 2 1 1 1 1 1 1 1 1 1 0 0 0 1 0 0 0 0 0 0 0 0 3 1 1 0 0 0 1 -0 -1 -0 -0 0 0 0 0 1
3 3 3 2 2 2 1 1 1 1 1 1 1 1 1 1 1 1 1 1 1 0 1 1 1 1 1 4 3 1 0 0 0 0 -0 0 -0 0 -0 1 0 0 1
3 3 2 2 2 1 1 1 1 1 2 2 2 1 1 1 1 1 1 1 1 1 1 1 1 1 1 5 3 1 0 0 -0 -0 -0 -0 -0 0 0 0 0 0 -0
2 2 2 2 1 1 1 1 1 1 2 2 2 2 1 2 2 2 2 1 1 1 1 1 1 1 3 5 4 1 0 0 -0 -0 -1 -0 -0 5 5 0 1 1 0
2 2 2 1 2 1 1 1 2 1 2 2 2 1 1 1 2 1 1 1 1 1 1 1 1 3 4 5 4 1 0 1 1 -0 -0 4 1 6 5 1 1 2 1
2 1 1 2 1 1 1 2 2 2 1 1 1 1 1 1 1 1 1 1 1 1 1 1 1 1 1 6 6 6 0 1 1 1 1 5 6 7 6 6 2 1 3
2 2 2 2 1 1 1 2 2 1 1 1 1 2 2 1 1 1 2 2 2 2 2 2 1 1 3 5 6 7 7 5 1 1 0 4 7 6 6 3 3 3 2
2 2 2 2 1 1 1 3 2 1 1 1 2 1 1 1 1 2 2 3 2 2 2 2 2 2 2 5 8 7 6 5 1 1 5 5 5 3 3 2 2 2 0
2 2 2 2 2 2 2 2 1 1 1 2 2 2 2 2 2 2 2 2 2 2 2 2 3 2 2 5 2 3 2 4 3 4 1 0 2 2 2 1 -0 0 1
2 2 2 3 2 2 2 2 2 1 2 2 2 3 7 9 11 12 10 7 11 3 2 2 2 2 2 8 9 6 2 3 6 4 0 0 0 1 1 1 1 1 1
2 3 2 2 2 2 2 2 1 2 2 3 5 6 6 6 7 8 10 14 13 13 13 11 7 10 11 11 11 11 10 10 9 2 1 1 1 1 1 1 2 2 2